User: anonymous   Login
Location: Oshawa
(43.9000°N, 78.8670°W)
Time: 13:50:46
(UTC-04:00)
Language:

CARTOSAT-1 - Orbit

View from above orbital plane
View from above orbital plane
View from above satellite
View from above satellite

Ground track
Ground track

The orbit data is extracted from the following two-line orbital elements,

1 28649U 05017A   16211.12831856  .00000056  00000-0  13269-4 0  9993
2 28649  97.8963 283.9358 0002976  45.7884 314.3551 14.83440266608083
Epoch (UTC): 29 July 2016 03:04:46
Eccentricity: 0.0002976
inclination: 97.8963°
perigee height: 616 km
apogee height: 620 km
right ascension of ascending node: 283.9358°
argument of perigee: 45.7884°
revolutions per day: 14.83440266
mean anomaly at epoch: 314.3551°
orbit number at epoch: 60808

The dashed part of the orbit path shows where the satellite is in the earth's shadow,  

DLR